SCOUT A DEB, 2386

Orbit data source: Space-Track

SCOUT A DEB, 2386 is space debris in LEO originally from a launch on Sat, 26 Mar 1966 UTC launched from the Air Force Western Test Range (AFWTR). Debris objects in space refer to the collection of defunct objects orbiting the Earth. Examples of debris include non-operational satellites, rocket bodies, and fragments generated from explosions, collisions, or faulty payload assembly.

Loading next visibility...
Identifier
2386, 1966-024D
Orbit
LEO
Last TLE update
2 days ago
Origin
Manufacturer
Unknown
Mission
Spacecraft
Bus & Motor
Unknown
Mass
Unknown
Launch date (UTC)
1966-03-26 (59 years ago)
Launch vehicle
Unknown
Launch site
Air Force Western Test Range (AFWTR)
Object type
Payload
Rocket body
Debris
Shape & HBR
Unknown
Radar Cross Section
Small (<0.1 m²)

Expand to show TLE details & history

TLE from 2 days ago
0 SCOUT A DEB
1 02386U 66024D   25199.77032151  .00000263  00000-0  22518-3 0  9991
2 02386  90.0538 329.7045 0126161 273.8527  84.8225 13.81386346275913
Epoch: 2025-07-18T18:29Z
TLE epoch observation values (Epoch: 2025-07-18T18:29:15.778Z)
Latitude
-0.00006°
Longitude
115.57175°
Altitude
954.779 km
Speed
7.378 km/s
True Right ascension
21h 58m 49s
True Declination
0° 00' 00"
Sunlit
Object was in full shadow at epoch
Visualization orbit readout
Latitude
41.99834°
Longitude
115.53273°
Altitude
1,027.629 km
Speed
7.31 km/s
Apparent Right ascension
23h 10m 15s
Apparent Declination
53° 05' 39"
Sunlit
Object is in daylight
Visualization observer readout
Local Sidereal Time
21:49:20
Azimuth
39.512° NE
Elevation
70.956°
Doppler factor
1
Orbital elements
Apogee altitude
1,048.505 km
Perigee altitude
863.449 km
Semi-major axis
7,334.114 km
Eccentricity
0.01262
Inclination
90.0538°
RAAN
329.7045°
Arg. of periapsis
273.8527°
True anomaly
86.2642°
Mean anomaly
84.8225°
Eccentric anomaly
85.54316°
Mean motion
3.45559 °/min
Orbital period
104.18 mins
BSTAR
0.00022518
Loading maneuver chart data...
Loading SW <> Apogee altitude chart data...
Loading historical data...
Loading historical data...
Loading historical data...
Loading historical data...
Loading historical data...
Loading historical data...
Loading historical data...
|